• In Russia
  • List of Countries
  • For 7 days
  • Water Temperature
  • Satellite Maps
  • Weather Map
  • Weather Widgets
  • user-avatar
    Login

    Hourly Weather Kika

    Today, 19 July, Thursday

    Time Temperature Precipitation Wind Pressure Humidity
    00:00 +18°C° 0 mm 1 mps 707 mmHg 94%
    01:00 +18°C° 0 mm 1 mps 707 mmHg 94%
    02:00 +16°C° 0 mm 1 mps 707 mmHg 94%
    03:00 +16°C° 0 mm 1 mps 707 mmHg 94%
    04:00 +16°C° 0 mm 1 mps 708 mmHg 95%
    05:00 +19°C° 0 mm 1 mps 708 mmHg 88%
    06:00 +21°C° 0 mm 1 mps 708 mmHg 81%
    07:00 +23°C° 0 mm 2 mps 708 mmHg 74%
    08:00 +25°C° 0 mm 2 mps 708 mmHg 70%
    09:00 +26°C° 0 mm 2 mps 708 mmHg 65%
    10:00 +27°C° 0 mm 2 mps 708 mmHg 60%
    11:00 +27°C° 0.1 mm 3 mps 708 mmHg 58%
    12:00 +28°C° 0.1 mm 3 mps 707 mmHg 56%
    13:00 +28°C° 0 mm 3 mps 707 mmHg 54%
    14:00 +28°C° 0 mm 3 mps 707 mmHg 53%
    15:00 +28°C° 0 mm 3 mps 707 mmHg 52%
    16:00 +28°C° 0 mm 3 mps 707 mmHg 51%
    17:00 +27°C° 0.1 mm 3 mps 706 mmHg 58%
    18:00 +26°C° 0.1 mm 2 mps 706 mmHg 65%
    19:00 +24°C° 0.1 mm 2 mps 706 mmHg 73%
    20:00 +23°C° 0.1 mm 2 mps 706 mmHg 78%
    21:00 +20°C° 0.1 mm 2 mps 706 mmHg 84%
    22:00 +19°C° 0.1 mm 2 mps 705 mmHg 90%
    23:00 +19°C° 0 mm 2 mps 705 mmHg 91%

    Tomorrow, 20 July, Friday

    Time Temperature Precipitation Wind Pressure Humidity
    00:00 +18°C° 0 mm 2 mps 705 mmHg 93%
    01:00 +18°C° 0 mm 2 mps 705 mmHg 94%
    02:00 +18°C° 0 mm 2 mps 705 mmHg 95%
    03:00 +18°C° 0 mm 2 mps 705 mmHg 95%
    04:00 +18°C° 0 mm 2 mps 704 mmHg 95%
    05:00 +19°C° 0.1 mm 2 mps 704 mmHg 89%
    06:00 +21°C° 0.1 mm 3 mps 704 mmHg 83%
    07:00 +22°C° 0.1 mm 3 mps 704 mmHg 76%
    08:00 +25°C° 0.4 mm 3 mps 704 mmHg 71%
    09:00 +27°C° 0.4 mm 3 mps 704 mmHg 65%
    10:00 +28°C° 0.4 mm 3 mps 704 mmHg 60%
    11:00 +30°C° 0.9 mm 3 mps 704 mmHg 57%
    12:00 +31°C° 0.9 mm 3 mps 703 mmHg 55%
    13:00 +33°C° 0.9 mm 3 mps 703 mmHg 53%
    14:00 +31°C° 1.9 mm 3 mps 702 mmHg 59%
    15:00 +29°C° 1.9 mm 3 mps 702 mmHg 65%
    16:00 +28°C° 1.9 mm 2 mps 702 mmHg 71%
    17:00 +26°C° 3.4 mm 2 mps 702 mmHg 78%
    18:00 +25°C° 3.4 mm 1 mps 702 mmHg 85%
    19:00 +23°C° 3.4 mm 1 mps 702 mmHg 92%
    20:00 +23°C° 3.7 mm 1 mps 702 mmHg 93%
    21:00 +22°C° 3.7 mm 1 mps 702 mmHg 94%
    22:00 +22°C° 3.7 mm 1 mps 702 mmHg 94%
    23:00 +21°C° 2 mm 1 mps 702 mmHg 95%

    Day after tomorrow, 21 July, Saturday

    Time Temperature Precipitation Wind Pressure Humidity
    00:00 +21°C° 2 mm 1 mps 702 mmHg 95%
    01:00 +20°C° 2 mm 1 mps 701 mmHg 96%
    02:00 +19°C° 0.3 mm 2 mps 701 mmHg 96%
    03:00 +18°C° 0.3 mm 2 mps 701 mmHg 97%
    04:00 +18°C° 0.3 mm 2 mps 701 mmHg 97%
    05:00 +18°C° 0.2 mm 3 mps 701 mmHg 96%
    06:00 +18°C° 0.2 mm 3 mps 701 mmHg 94%
    07:00 +18°C° 0.2 mm 3 mps 701 mmHg 93%
    08:00 +18°C° 0 mm 4 mps 701 mmHg 90%
    09:00 +18°C° 0 mm 4 mps 702 mmHg 87%
    10:00 +19°C° 0 mm 4 mps 702 mmHg 85%
    11:00 +19°C° 0.1 mm 4 mps 702 mmHg 83%
    12:00 +19°C° 0.1 mm 5 mps 703 mmHg 82%
    13:00 +19°C° 0.1 mm 5 mps 703 mmHg 81%
    14:00 +17°C° 0.1 mm 5 mps 703 mmHg 82%
    15:00 +17°C° 0.1 mm 5 mps 703 mmHg 84%
    16:00 +17°C° 0.1 mm 4 mps 703 mmHg 85%
    17:00 +17°C° 0.2 mm 4 mps 704 mmHg 88%
    18:00 +15°C° 0.2 mm 4 mps 704 mmHg 90%
    19:00 +15°C° 0.2 mm 4 mps 704 mmHg 92%
    20:00 +15°C° 0.2 mm 4 mps 704 mmHg 93%
    21:00 +14°C° 0.2 mm 4 mps 705 mmHg 93%
    22:00 +14°C° 0.2 mm 4 mps 705 mmHg 94%
    23:00 +14°C° 0.1 mm 4 mps 705 mmHg 94%

    22 July, Sunday

    Time Temperature Precipitation Wind Pressure Humidity
    00:00 +14°C° 0.1 mm 4 mps 705 mmHg 94%
    01:00 +13°C° 0.1 mm 4 mps 705 mmHg 94%
    02:00 +13°C° 0.2 mm 4 mps 706 mmHg 94%
    03:00 +13°C° 0.2 mm 4 mps 706 mmHg 94%
    04:00 +12°C° 0.2 mm 4 mps 706 mmHg 94%
    05:00 +12°C° 0.2 mm 4 mps 707 mmHg 94%
    06:00 +12°C° 0.2 mm 4 mps 707 mmHg 93%
    07:00 +12°C° 0.2 mm 4 mps 707 mmHg 93%
    08:00 +12°C° 0.1 mm 4 mps 708 mmHg 92%
    09:00 +12°C° 0.1 mm 4 mps 708 mmHg 90%
    10:00 +13°C° 0.1 mm 4 mps 709 mmHg 89%
    11:00 +14°C° 0 mm 4 mps 709 mmHg 81%
    12:00 +15°C° 0 mm 4 mps 709 mmHg 74%
    13:00 +18°C° 0 mm 4 mps 709 mmHg 67%
    14:00 +19°C° 0 mm 4 mps 709 mmHg 62%
    15:00 +20°C° 0 mm 4 mps 709 mmHg 57%
    16:00 +21°C° 0 mm 4 mps 709 mmHg 52%
    17:00 +20°C° 0 mm 3 mps 709 mmHg 57%
    18:00 +18°C° 0 mm 2 mps 709 mmHg 62%
    19:00 +17°C° 0 mm 2 mps 709 mmHg 68%
    20:00 +15°C° 0 mm 1 mps 709 mmHg 75%
    21:00 +13°C° 0 mm 1 mps 710 mmHg 81%
    22:00 +12°C° 0 mm 1 mps 710 mmHg 88%
    23:00 +11°C° 0 mm 1 mps 710 mmHg 89%

    23 July, Monday

    Time Temperature Precipitation Wind Pressure Humidity
    00:00 +11°C° 0 mm 1 mps 710 mmHg 90%
    01:00 +11°C° 0 mm 1 mps 710 mmHg 91%
    02:00 +10°C° 0 mm 1 mps 710 mmHg 91%
    03:00 +10°C° 0 mm 1 mps 710 mmHg 91%
    04:00 +10°C° 0 mm 1 mps 710 mmHg 91%
    05:00 +12°C° 0 mm 1 mps 710 mmHg 80%
    06:00 +15°C° 0 mm 1 mps 710 mmHg 68%
    07:00 +19°C° 0 mm 1 mps 710 mmHg 57%
    08:00 +21°C° 0 mm 1 mps 710 mmHg 50%
    09:00 +24°C° 0 mm 1 mps 710 mmHg 43%
    10:00 +26°C° 0 mm 1 mps 710 mmHg 36%
    11:00 +27°C° 0 mm 1 mps 710 mmHg 34%
    12:00 +28°C° 0 mm 2 mps 709 mmHg 32%
    13:00 +29°C° 0 mm 2 mps 709 mmHg 30%
    14:00 +28°C° 0 mm 2 mps 709 mmHg 32%
    15:00 +28°C° 0 mm 2 mps 708 mmHg 34%
    16:00 +27°C° 0 mm 2 mps 708 mmHg 35%
    17:00 +25°C° 0 mm 2 mps 708 mmHg 43%
    18:00 +23°C° 0 mm 2 mps 708 mmHg 52%
    19:00 +20°C° 0 mm 2 mps 708 mmHg 60%
    20:00 +18°C° 0 mm 2 mps 708 mmHg 62%
    21:00 +17°C° 0 mm 2 mps 707 mmHg 65%
    22:00 +15°C° 0 mm 2 mps 707 mmHg 68%
    23:00 +15°C° 0 mm 1 mps 707 mmHg 65%

    24 July, Tuesday

    Time Temperature Precipitation Wind Pressure Humidity
    00:00 +15°C° 0 mm 1 mps 707 mmHg 62%
    01:00 +14°C° 0 mm 1 mps 707 mmHg 59%
    02:00 +14°C° 0 mm 1 mps 707 mmHg 57%
    03:00 +14°C° 0 mm 1 mps 707 mmHg 55%
    04:00 +13°C° 0 mm 2 mps 707 mmHg 54%
    05:00 +16°C° 0 mm 1 mps 707 mmHg 48%
    06:00 +19°C° 0 mm 1 mps 707 mmHg 43%
    07:00 +22°C° 0 mm 1 mps 708 mmHg 37%
    08:00 +24°C° 0 mm 1 mps 707 mmHg 34%
    09:00 +26°C° 0 mm 1 mps 707 mmHg 31%
    10:00 +28°C° 0 mm 2 mps 707 mmHg 28%
    11:00 +29°C° 0 mm 2 mps 707 mmHg 28%
    12:00 +29°C° 0 mm 2 mps 706 mmHg 28%
    13:00 +30°C° 0 mm 2 mps 706 mmHg 28%
    14:00 +30°C° 0 mm 2 mps 706 mmHg 29%
    15:00 +29°C° 0 mm 2 mps 706 mmHg 30%
    16:00 +29°C° 0 mm 2 mps 705 mmHg 31%
    17:00 +27°C° 0 mm 2 mps 705 mmHg 38%
    18:00 +25°C° 0 mm 2 mps 705 mmHg 46%
    19:00 +21°C° 0 mm 2 mps 705 mmHg 54%
    20:00 +20°C° 0 mm 2 mps 705 mmHg 55%
    21:00 +19°C° 0 mm 1 mps 705 mmHg 55%
    22:00 +18°C° 0 mm 1 mps 705 mmHg 56%
    23:00 +18°C° 0 mm 1 mps 705 mmHg 59%
    Show more